Вернуться в каталог

COSMOS 2251 DEB

АктивенLEO
NORAD 34962·DEBRIS·🇷🇺 Russia

Запущен Jun 16, 1993 с Plesetsk Cosmodrome

Loading…

Ближайшие Пролёты (ближайшие 24 часа)

TLE

СвежийSource: Space-Track

Эпоха: Sep 13, 2026, 19:44 UTC

1 34962U 93036AER 26256.82230194  .00000970  00000-0  27206-3 0  9991
2 34962  74.0299  39.1338 0017580  86.2275 274.0894 14.47278148915572

Отслеживайте COSMOS 2251 DEB в реальном времени с AllMySat

Download on the App Store